{"data":{"norad_id":53888,"intl_designator":"2022-119C","name":"STARLINK-5034","alt_names":[],"object_type":"PAYLOAD","status":"ACTIVE","operator":null,"country":"US","launch_date":"2022-09-24","launch_site_code":"AFETR","launch_vehicle":null,"mission":null,"orbit_class":"UNKNOWN","rcs_meters":null,"size_class":null,"mass_kg":null,"dimensions":null,"purposes":["comms"],"wikipedia_slug":null,"has_3d_model":false,"image_url":null,"decayed_at":null,"tle_current":{"epoch":"2026-05-25T04:00:03.998880Z","epoch_age_seconds":60976,"freshness":"FRESH","line1":"1 53888U 22119C   26145.16671295  .00441636  00000+0  19749-2 0  9997","line2":"2 53888  53.2156 318.7177 0000826  38.9781 245.9162 15.82493144  5883","mean_motion":15.82493144,"eccentricity":8.26e-5,"inclination_deg":53.2156,"raan_deg":318.7177,"arg_perigee_deg":38.9781,"mean_anomaly_deg":245.9162,"bstar":0.0019749,"rev_number":588,"period_min":90.99565489176,"perigee_km":322.83920363009,"apogee_km":323.94629634478,"semimajor_km":6701.5297499874,"source":"CELESTRAK","updated_at":"2026-05-25T13:38:17.581614Z"}}}